sat.trackr.live / text

‹ back to catalog

IRIDIUM 139

NORAD 42963 · 2017-061J

PAYLOAD ACTIVE UNKNOWN

§ Identity

Operator
Country
US
Launch date
2017-10-09
Launch site
AFWTR
Launch vehicle
Mass (kg)
RCS (m²)

Purposes: comms

External: N2YO · Heavens-Above · Gunter

§ Orbital elements

Epoch: 2026-05-25T02:19:18.651360Z

Period
100.40 min
Inclination
86.3991°
Eccentricity
0.0002144
Mean motion
14.34218115 rev/d
Perigee alt
776.1 km
Apogee alt
779.2 km
Semi-major
7,155.8 km
B*
1.3826e-5
RAAN
34.9702°
Arg perigee
82.3117°
Mean anomaly
277.8322°
Rev number
45,153

§ Raw data

IRIDIUM 1391 42963U 17061J   26145.09674365  .00000058  00000+0  13826-4 0  99932 42963  86.3991  34.9702 0002144  82.3117 277.8322 14.34218115451539

JSON: /api/v1/satellites/42963 · /tle

For live sub-satellite position, see the globe view (requires WebGL).

§ Visibility from observer

Set your observer location to see the next 7 days of passes ≥ 10°. The values pass through the URL so the page stays shareable.

No JS? Fill the form by hand. The geolocation button needs JavaScript.